Weather History for Whiteville, NC

Change the Weather History Date:

Friday, February 8, 2013

  Actual Average (KLBT) Record (KLBT)
Temperature  
Mean Temperature 48 °F 45 °F  
Max Temperature 59 °F 56 °F 74 °F (2009)
Min Temperature 36 °F 35 °F 27 °F (2006)
Degree Days  
Heating Degree Days 18 20  
Month to date heating degree days 162  
Since 1 July heating degree days 1881  
Cooling Degree Days 0 0  
Month to date cooling degree days 0  
Year to date cooling degree days 1  
Moisture  
Dew Point 41 °F    
Average Humidity 76    
Maximum Humidity 98    
Minimum Humidity 52    
Precipitation  
Precipitation 0.29 in 0.10 in 0.48 in (2013)
Month to date precipitation 0.70  
Year to date precipitation 3.67  
Sea Level Pressure  
Sea Level Pressure 29.84 in    
Wind  
Wind Speed 7 mph (NW)    
Max Wind Speed 14 mph    
Max Gust Speed 24 mph    
Visibility 10 miles    
Events Rain    
T = Trace of Precipitation, MM = Missing Value Source: NWS Daily Summary

Daily Weather History Graph

Daily Weather History Graph

Search for Another Location

Airport:

Trip Planner

Search our weather history database for the weather conditions in past years. The results will help you decide how hot, cold, wet, or windy it might be!

Date:

Astronomy

Feb. 08, 2013 Rise Set
Actual Time 7:06 AM EST 5:52 PM EST
Civil Twilight 6:40 AM EST 6:18 PM EST
Nautical Twilight 6:10 AM EST 6:47 PM EST
Astronomical Twilight 5:41 AM EST 7:17 PM EST
Moon 5:31 AM EST (2/8) 4:24 PM EST (2/8)
Length of Visible Light 11h 37m
Length of Day
10h 45m
Waning Crescent, 3% of the Moon is Illuminated
Feb 8
Waning Crescent
Feb 10
New
Feb 17
First Quarter
Feb 25
Full
Mar 4
Last Quarter

Hourly Weather History & Observations

Time (EST) Temp. Windchill Dew Point Humidity Pressure Visibility Wind Dir Wind Speed Gust Speed Precip Events Conditions
12:15 AM 45.9 °F 39.7 °F 45.1 °F 97% 29.75 in 10.0 mi NE 13.8 mph 24.2 mph N/A Rain Light Rain
12:35 AM 45.7 °F 41.0 °F 44.8 °F 97% 29.73 in 7.0 mi NE 9.2 mph 19.6 mph N/A Rain Light Rain
12:55 AM 45.5 °F 39.9 °F 44.8 °F 97% 29.70 in 5.0 mi NE 11.5 mph 19.6 mph 0.02 in Rain Light Rain
1:15 AM 45.3 °F 39.7 °F 44.6 °F 97% 29.69 in 7.0 mi NE 11.5 mph 17.3 mph 0.02 in Rain Light Rain
1:35 AM 45.0 °F 40.1 °F 44.2 °F 97% 29.67 in 7.0 mi NE 9.2 mph - 0.03 in Rain Rain
1:55 AM 44.6 °F 39.7 °F 43.9 °F 97% 29.69 in 4.0 mi West 9.2 mph - 0.09 in Rain Heavy Rain
2:15 AM 43.9 °F 38.8 °F 43.2 °F 97% 29.69 in 5.0 mi NNW 9.2 mph - 0.08 in Rain Rain
2:35 AM 42.4 °F 37.0 °F 41.9 °F 98% 29.69 in 3.0 mi North 9.2 mph - 0.17 in Rain Heavy Rain
2:55 AM 40.8 °F 35.0 °F 40.1 °F 97% 29.67 in 10.0 mi North 9.2 mph 17.3 mph 0.18 in Rain Light Rain
3:15 AM 39.9 °F 33.9 °F 39.2 °F 97% 29.67 in 10.0 mi North 9.2 mph 16.1 mph N/A   Overcast
3:35 AM 38.7 °F 32.4 °F 37.6 °F 96% 29.66 in 10.0 mi North 9.2 mph - N/A   Overcast
3:55 AM 38.1 °F 32.3 °F 36.7 °F 95% 29.67 in 10.0 mi NNW 8.1 mph - N/A   Overcast
4:35 AM 37.2 °F 31.9 °F 35.4 °F 93% 29.69 in 10.0 mi NNW 6.9 mph 17.3 mph N/A   Overcast
4:55 AM 36.1 °F 30.6 °F 34.3 °F 93% 29.71 in 10.0 mi North 6.9 mph - N/A   Overcast
5:15 AM 36.5 °F 32.7 °F 34.5 °F 93% 29.72 in 10.0 mi North 4.6 mph - N/A   Overcast
5:35 AM 37.9 °F 33.5 °F 35.8 °F 92% 29.74 in 10.0 mi NW 5.8 mph - N/A   Overcast
5:55 AM 38.1 °F 35.7 °F 35.6 °F 91% 29.75 in 10.0 mi NNW 3.5 mph - N/A   Overcast
6:15 AM 39.6 °F 35.4 °F 36.7 °F 89% 29.77 in 10.0 mi NW 5.8 mph - N/A   Overcast
6:35 AM 40.8 °F 36.9 °F 38.1 °F 90% 29.77 in 10.0 mi North 5.8 mph - N/A   Overcast
6:55 AM 41.4 °F 37.6 °F 38.7 °F 90% 29.78 in 10.0 mi North 5.8 mph - N/A   Mostly Cloudy
7:15 AM 41.9 °F 38.2 °F 39.2 °F 90% 29.78 in 10.0 mi NNW 5.8 mph - N/A   Mostly Cloudy
7:35 AM 42.1 °F 38.4 °F 39.7 °F 91% 29.79 in 10.0 mi WNW 5.8 mph - N/A   Overcast
7:55 AM 40.5 °F 36.5 °F 37.9 °F 91% 29.81 in 10.0 mi NNW 5.8 mph - N/A   Overcast
8:15 AM 41.0 °F 37.1 °F 38.1 °F 89% 29.82 in 10.0 mi WNW 5.8 mph - N/A   Scattered Clouds
8:35 AM 42.8 °F 40.1 °F 38.1 °F 84% 29.82 in 10.0 mi NW 4.6 mph - N/A   Clear
8:55 AM 44.4 °F 42.0 °F 38.3 °F 79% 29.82 in 10.0 mi WNW 4.6 mph - N/A   Clear
9:15 AM 46.0 °F 44.8 °F 38.7 °F 75% 29.84 in 10.0 mi WNW 3.5 mph - N/A   Clear
9:35 AM 46.9 °F - 38.8 °F 73% 29.85 in 10.0 mi WNW 4.6 mph - N/A   Clear
9:55 AM 48.2 °F - 39.9 °F 73% 29.85 in 10.0 mi NW 5.8 mph - N/A   Clear
10:15 AM 49.1 °F - 40.3 °F 72% 29.86 in 10.0 mi NW 3.5 mph - N/A   Clear
10:35 AM 49.6 °F - 41.2 °F 73% 29.88 in 10.0 mi WNW 6.9 mph - N/A   Scattered Clouds
10:55 AM 49.1 °F - 41.2 °F 74% 29.89 in 10.0 mi West 9.2 mph - N/A   Mostly Cloudy
11:15 AM 47.7 °F - 41.0 °F 78% 29.90 in 10.0 mi West 9.2 mph - N/A   Overcast
11:35 AM 47.1 °F - 40.6 °F 78% 29.89 in 10.0 mi NW 6.9 mph 16.1 mph N/A   Mostly Cloudy
11:55 AM 47.8 °F - 40.5 °F 76% 29.89 in 10.0 mi West 10.4 mph 16.1 mph N/A   Scattered Clouds
12:15 PM 48.9 °F - 40.5 °F 73% 29.88 in 10.0 mi WNW 6.9 mph - N/A   Scattered Clouds
12:35 PM 50.0 °F - 41.2 °F 72% 29.87 in 10.0 mi West 5.8 mph - N/A   Scattered Clouds
1:15 PM 52.2 °F - 41.7 °F 68% 29.87 in 10.0 mi West 5.8 mph - N/A   Clear
1:35 PM 53.1 °F - 42.1 °F 66% 29.87 in 10.0 mi WSW 6.9 mph - N/A   Clear
1:55 PM 54.3 °F - 42.1 °F 63% 29.86 in 10.0 mi West 5.8 mph - N/A   Clear
2:15 PM 55.9 °F - 42.6 °F 61% 29.86 in 10.0 mi WNW 9.2 mph - N/A   Clear
2:35 PM 57.0 °F - 42.3 °F 58% 29.86 in 10.0 mi West 9.2 mph - N/A   Clear
2:55 PM 58.1 °F - 42.8 °F 57% 29.85 in 10.0 mi WSW 8.1 mph - N/A   Clear
3:15 PM 58.5 °F - 42.8 °F 56% 29.85 in 10.0 mi WSW 5.8 mph - N/A   Clear
3:35 PM 59.0 °F - 43.5 °F 56% 29.85 in 10.0 mi West 6.9 mph - N/A   Clear
3:55 PM 59.9 °F - 44.2 °F 56% 29.85 in 10.0 mi West 3.5 mph - N/A   Clear
4:15 PM 59.7 °F - 44.2 °F 57% 29.86 in 10.0 mi West 6.9 mph - N/A   Clear
4:35 PM 59.5 °F - 44.4 °F 57% 29.86 in 10.0 mi West 5.8 mph - N/A   Clear
4:55 PM 59.4 °F - 44.6 °F 58% 29.87 in 10.0 mi West 3.5 mph - N/A   Clear
5:15 PM 58.5 °F - 45.1 °F 61% 29.88 in 10.0 mi West 4.6 mph - N/A   Clear
5:35 PM 58.1 °F - 45.5 °F 63% 29.88 in 10.0 mi West 3.5 mph - N/A   Scattered Clouds
5:55 PM 57.2 °F - 46.0 °F 66% 29.89 in 10.0 mi Calm Calm - N/A   Mostly Cloudy
6:35 PM 56.5 °F - 46.6 °F 69% 29.90 in 10.0 mi Calm Calm - N/A   Mostly Cloudy
6:55 PM 56.3 °F - 46.9 °F 71% 29.91 in 10.0 mi Calm Calm - N/A   Mostly Cloudy
7:15 PM 56.3 °F - 46.8 °F 70% 29.92 in 10.0 mi Calm Calm - N/A   Mostly Cloudy
7:35 PM 56.3 °F - 46.9 °F 71% 29.92 in 10.0 mi Calm Calm - N/A   Overcast
7:55 PM 56.5 °F - 47.1 °F 71% 29.93 in 10.0 mi Calm Calm - N/A   Overcast
8:15 PM 56.5 °F - 46.9 °F 70% 29.94 in 10.0 mi Calm Calm - N/A   Overcast
8:35 PM 56.3 °F - 46.9 °F 71% 29.95 in 10.0 mi Calm Calm - N/A   Mostly Cloudy
8:55 PM 55.4 °F - 46.9 °F 73% 29.96 in 10.0 mi WSW 3.5 mph - N/A   Scattered Clouds
9:15 PM 54.9 °F - 46.8 °F 74% 29.97 in 10.0 mi Calm Calm - N/A   Scattered Clouds
9:35 PM 53.8 °F - 45.9 °F 75% 29.98 in 10.0 mi Calm Calm - N/A   Clear
9:55 PM 52.7 °F - 45.7 °F 77% 29.98 in 10.0 mi Calm Calm - N/A   Clear
10:15 PM 52.0 °F - 44.1 °F 74% 29.99 in 10.0 mi Calm Calm - N/A   Clear
10:35 PM 52.7 °F - 39.0 °F 60% 30.00 in 10.0 mi NW 4.6 mph - N/A   Clear
10:55 PM 52.2 °F - 36.7 °F 56% 30.02 in 10.0 mi NW 4.6 mph - N/A   Clear
11:15 PM 51.1 °F - 35.4 °F 55% 30.03 in 10.0 mi North 3.5 mph - N/A   Clear
11:35 PM 50.0 °F - 32.9 °F 52% 30.04 in 10.0 mi North 6.9 mph - N/A   Clear
11:55 PM 48.9 °F - 31.8 °F 52% 30.06 in 10.0 mi North 5.8 mph - N/A   Clear